Погода в Чаркове

Россия / Республика Хакасия     53°42′09″N   90°22′56″E
темп.,
°C
ветер,
м/с
пор.,
м/с
влажн.,
%
обл.,
%
осадки,
мм/ч
давл.,
гПа
погр.,
м
4 декабря, сб
сб401:00−5юв2367100 0.0 101535
04:00−5ю1281100 0.0 101715
07:00−3юз467831 0.0 102193
10:00−5юз477537 0.0 1023113
13:00−1зюз51251100 0.0 10231079
16:00−2зюз7146024 0.0 1024899
19:00−4зюз611755 0.0 1025381
22:00−4зюз611643 0.0 1028290
5 декабря, вс
вс501:00−6зюз34732 0.0 103150
04:00−7юз33795 0.0 103246
07:00−9зсз228377 0.0 103330
10:00−8зсз2377100 0.0 103271
13:00−6з1174100 0.0 102965
16:00−6всв0081100 0.0 102710
19:00−6зсз1186100 0.0 102610
22:00−6з118496 0.0 102510
6 декабря, пн
пн601:00−6з118299 0.0 102410
04:00−7зсз1183100 0.0 102410
07:00−7зсз0183100 0.0 102310
10:00−6в0183100 0.0 102317
13:00−6вюв1176100 0.0 102361
16:00−6вюв1173100 0.0 102327
19:00−6в1175100 0.0 102221
22:00−5ююв0173100 0.0 102116
7 декабря, вт
вт701:00−5ю1172100 0.0 102016
04:00−5юз1172100 0.0 101912
07:00−5юз1170100 0.0 101712
10:00−5юз1169100 0.0 101814
13:00−1зюз3668100 0.0 1017249
16:00−1юз4674100 0.0 1019159
19:00−3юз357787 0.0 1020108
22:00−5з23756 0.0 102430
8 декабря, ср
ср801:00−7сз22774 0.0 102714
04:00−9зсз11804 0.0 103014
07:00−11зсз22806 0.0 103218
10:00−12з227756 0.0 103355
13:00−10з22665 0.0 1032264
16:00−10з22680 0.0 103228
19:00−12з22765 0.0 103444
22:00−14з2373100 0.0 103671